Dewpoint
57 57 57 57 57 58 58 58 60 61 63 59 58 56 56 56 56 55 55 56 56 57 58 57 57 57 57 57 57 57 56 56 59 58 58 58 59 58 58 59 56 56 58
55 56 56 57 58 57 58 59 59 62 62 61 59 57 58 59 59 58 58 57 58 58 60 61 60 59 59 59 58 58 57 57 60 58 57 55 54 55 58 56 55 56 57
54 56 56 57 59 59 59 60 58 62 62 63 62 62 62 62 61 62 60 60 60 60 60 63 63 61 61 60 60 60 58 58 60 60 56 52 50 53 56 55 54 54 55
54 56 57 58 59 59 60 59 61 61 61 62 61 60 59 59 60 61 63 62 62 62 62 62 63 63 63 62 61 62 61 60 59 60 60 59 57 52 52 54 54 54 54
54 55 57 58 58 58 57 58 60 61 61 60 61 60 58 59 61 62 62 62 63 63 63 63 63 63 63 62 62 62 62 62 61 59 57 58 57 57 54 51 53 54 54
54 54 56 57 58 58 58 58 58 60 60 60 58 56 54 60 59 61 61 61 62 63 63 63 63 63 63 63 62 62 61 61 61 60 58 58 56 56 56 54 54 52 52
53 53 56 56 55 56 57 57 57 58 60 60 58 58 58 58 58 60 61 60 59 60 61 62 62 62 61 62 62 61 61 61 61 60 60 60 58 57 54 53 51 49 50
52 53 54 54 54 54 56 58 56 58 59 60 59 59 60 59 59 59 59 59 59 59 60 61 62 62 62 61 61 61 62 62 61 61 61 60 59 56 55 53 50 47 48
42 48 51 55 55 56 56 58 57 56 58 58 59 59 59 59 59 59 59 58 58 58 59 60 60 60 61 61 61 61 61 61 62 61 60 58 56 55 54 53 51 47 41
41 40 40 44 50 55 57 58 58 57 57 58 58 59 59 60 60 59 58 58 58 58 59 59 59 61 61 61 61 61 60 60 59 58 57 56 55 54 53 52 51 50 48
40 40 39 38 37 42 50 57 58 58 57 58 59 58 59 60 60 59 59 59 59 59 60 60 60 60 59 60 60 60 59 58 57 56 56 53 51 51 50 50 50 49 49
40 41 41 42 41 39 44 50 55 58 58 58 58 58 59 60 60 60 60 60 58 59 59 60 59 58 58 58 58 57 56 55 54 53 52 49 49 48 48 48 48 47 47
33 39 42 42 43 44 43 45 49 52 56 58 59 59 59 59 59 59 59 59 58 58 57 58 57 56 55 54 52 51 51 50 49 48 48 47 47 46 46 45 45 45 45
32 33 36 40 43 44 46 47 49 52 54 56 56 56 56 57 57 56 56 55 54 54 53 53 52 51 50 49 47 47 47 46 45 45 44 44 44 43 44 44 44 43 42
34 34 34 35 36 42 44 45 46 48 51 52 53 53 53 54 54 53 52 50 50 49 48 47 47 45 45 44 44 44 44 43 43 42 42 42 42 43 43 42 42 41 40
35 35 36 36 36 36 40 44 44 45 47 48 49 50 51 52 50 49 48 47 45 43 43 43 43 42 42 44 44 43 42 42 41 40 40 40 40 41 42 41 41 40 39
35 36 36 36 37 37 37 38 43 44 44 45 45 46 47 48 49 47 46 45 43 42 42 42 42 41 43 43 43 42 41 40 40 39 39 38 39 40 40 40 39 38 38
37 37 37 37 38 38 38 38 38 43 44 44 43 44 44 45 46 45 45 43 42 42 42 42 41 41 43 43 43 42 41 40 40 40 39 38 37 38 38 36 34 33 33
38 39 39 38 38 39 39 39 39 38 39 43 44 43 43 43 43 43 43 42 41 41 42 41 40 40 42 43 42 40 39 39 39 39 39 37 36 37 37 34 33 32 30
37 38 38 39 39 39 39 40 40 41 41 41 40 44 43 43 42 42 42 41 41 40 40 40 40 40 41 42 41 39 38 37 37 37 37 38 36 38 37 33 32 30 28
37 38 38 38 39 38 38 38 39 39 40 40 41 41 44 43 42 41 41 41 41 40 39 39 40 40 41 41 41 39 36 36 35 35 34 36 37 37 37 35 33 31 28
37 37 37 37 38 38 37 37 37 38 39 40 40 41 41 44 42 41 40 40 40 39 39 38 39 39 40 42 42 41 37 36 35 34 33 33 37 36 36 35 34 32 28
37 36 36 37 37 37 37 36 36 38 38 39 40 40 41 43 42 41 40 39 38 38 38 38 37 37 38 40 42 41 40 38 34 34 33 33 35 36 36 36 34 32 28
37 36 36 36 36 36 36 36 36 37 38 39 40 40 41 42 42 40 39 38 37 37 37 37 37 37 37 39 41 41 41 39 35 34 33 34 33 32 30 30 31 32 30
37 36 36 35 36 36 36 35 35 36 38 38 39 40 40 42 41 41 40 39 38 38 37 37 37 37 36 37 39 40 40 39 37 34 30 27 26 25 25 25 28 31 31
37 36 36 36 36 35 35 34 35 35 37 38 38 38 38 38 40 39 39 39 39 39 39 39 38 37 37 38 39 40 40 39 39 34 32 31 30 29 27 26 24 25 30
Wind_Speed
13 20 12 8 9 7 9 12 11 15 14 19 20 20 21 19 15 15 17 19 18 20 19 17 17 16 16 15 13 8 11 7 2 5 3 5 3 4 3 5 6 7 8
20 17 15 14 12 12 9 9 9 12 16 21 22 21 21 18 17 16 15 17 18 18 17 16 17 18 16 15 14 10 5 6 6 4 1 1 2 2 6 5 8 8 6
25 20 18 15 13 14 12 10 15 20 22 21 12 14 18 15 16 18 17 18 20 19 17 16 15 15 14 14 11 11 11 7 4 4 3 3 1 1 3 3 6 7 5
16 15 17 15 18 16 12 7 11 22 25 23 18 19 22 24 18 20 16 17 19 18 19 17 16 14 12 12 10 8 6 3 5 4 8 5 2 2 1 2 1 1 5
26 20 15 15 15 15 12 8 9 22 18 22 22 21 23 21 17 18 19 16 17 18 17 17 16 14 11 12 14 13 9 5 3 5 3 4 4 3 4 5 4 3 3
20 16 16 13 16 14 16 8 11 16 15 14 16 31 29 20 21 17 17 17 15 14 15 14 14 14 14 15 15 13 13 10 10 11 11 8 6 7 5 6 6 6 4
19 14 10 13 12 17 14 14 13 15 15 17 21 13 18 21 22 23 20 20 16 13 14 13 14 13 14 15 16 16 17 16 12 14 14 11 11 8 7 7 5 6 2
8 10 12 18 17 13 12 14 14 10 17 12 16 12 1 8 12 12 13 12 14 15 13 15 10 7 9 11 12 13 12 11 12 19 17 13 13 11 7 6 7 3 4
6 6 9 6 11 19 18 16 18 15 14 19 14 12 10 8 13 13 12 14 11 10 12 14 13 13 12 10 11 10 10 11 11 15 13 11 10 8 7 5 5 6 5
17 17 10 3 8 12 9 15 17 23 20 20 22 16 17 15 17 15 17 15 12 15 13 12 13 12 14 14 13 8 6 9 11 11 13 10 7 8 9 9 8 8 8
17 13 11 9 6 1 11 12 13 18 20 18 16 17 15 18 15 15 15 17 16 15 13 13 13 14 11 10 8 5 9 12 14 11 14 11 11 11 9 7 6 6 7
14 14 14 12 12 9 7 5 11 12 17 18 20 22 22 20 19 22 24 17 20 17 17 17 13 10 12 11 12 12 12 14 17 16 14 13 11 10 7 7 7 7 6
19 17 19 18 16 14 10 11 9 4 11 14 16 14 9 13 17 18 17 15 15 15 15 14 14 13 12 12 11 12 14 14 14 15 16 15 13 10 8 8 8 6 5
20 20 20 19 18 17 16 14 13 12 9 7 17 15 12 10 8 6 10 10 11 12 11 10 11 13 13 14 13 14 15 13 13 12 12 11 10 10 9 7 7 5 5
19 18 19 19 19 17 16 14 13 11 9 8 11 11 16 13 12 8 6 6 11 11 12 12 12 13 14 14 17 16 16 17 15 11 12 11 11 10 8 9 7 8 6
17 16 16 17 17 17 15 12 11 9 7 8 6 5 5 17 13 11 9 8 8 11 13 13 14 15 11 17 17 16 16 14 15 14 12 11 11 11 10 10 7 6 7
14 15 15 14 13 16 14 12 9 9 8 6 5 6 8 9 7 8 8 7 9 10 12 13 15 14 13 15 14 15 14 15 15 14 14 11 9 9 9 10 9 7 6
12 13 15 13 10 12 14 13 11 8 6 4 3 2 4 5 7 7 8 9 10 12 12 13 13 13 11 14 15 15 13 13 13 13 13 12 11 10 10 8 6 4 3
8 8 9 9 12 15 13 10 12 10 7 5 2 2 3 4 5 8 9 8 9 10 12 12 13 14 13 15 17 16 13 13 12 10 11 12 11 11 12 10 8 5 4
7 9 10 8 11 13 13 12 11 10 10 9 8 7 7 10 12 13 13 8 8 11 12 13 13 14 16 17 17 15 14 14 13 10 10 12 13 13 11 10 10 9 6
8 7 9 9 8 10 11 13 11 12 12 11 10 7 8 11 12 12 10 10 10 11 11 12 12 13 15 16 17 14 12 13 13 12 11 9 12 12 11 10 9 7 7
8 7 8 8 8 10 12 12 12 13 14 13 12 10 7 8 11 14 12 12 13 14 14 14 12 10 12 14 16 14 10 12 16 14 11 10 12 12 11 10 9 8 8
7 6 7 6 6 9 9 12 14 14 13 12 11 10 8 4 6 12 13 11 12 13 14 14 14 15 13 11 16 17 11 13 12 13 12 12 12 12 10 9 9 10 7
7 6 6 6 7 7 7 9 12 14 14 14 11 6 4 5 6 7 9 11 14 14 13 13 15 14 13 14 14 15 15 12 10 12 12 12 11 10 8 7 7 9 10
5 6 6 5 6 7 7 8 10 12 12 11 11 9 6 5 7 7 9 11 10 13 14 16 15 16 17 19 17 17 15 14 14 14 10 9 8 9 8 6 7 8 8
5 6 6 5 5 5 6 10 10 10 9 9 9 9 9 7 3 6 6 3 4 9 10 13 15 14 11 16 20 20 19 18 20 10 11 12 12 13 12 11 9 10 11
Wind_Direction
158 121 142 148 176 150 146 170 166 149 171 179 161 156 159 146 151 156 156 154 158 162 164 169 170 169 171 179 184 181 189 183 149 147 219 249 254 261 228 167 134 126 117
117 123 154 166 177 168 163 184 172 165 162 196 172 168 159 156 163 164 161 161 162 171 172 176 169 173 174 181 189 179 163 195 171 151 121 301 358 280 222 158 142 137 128
143 160 166 168 168 171 149 160 183 184 165 178 158 145 148 150 156 163 171 172 175 178 177 170 162 172 173 177 179 191 174 171 183 100 151 109 190 1 63 158 140 152 147
152 143 161 167 162 141 136 128 188 172 150 157 174 180 167 168 174 173 177 177 172 173 179 172 160 155 154 148 148 131 128 117 160 95 106 97 96 103 145 354 348 170 142
165 180 154 174 150 142 133 122 142 166 174 153 176 180 185 171 158 159 156 150 154 157 162 161 160 164 164 162 161 157 150 152 212 192 171 172 199 205 205 222 247 284 236
142 146 158 167 158 158 150 168 151 117 145 163 184 195 192 166 160 149 150 147 149 154 160 161 167 169 165 164 169 175 170 174 216 207 226 200 173 193 182 205 212 235 281
140 152 181 171 169 154 159 169 173 147 116 153 186 199 164 169 174 170 169 161 162 167 174 168 172 177 181 177 176 179 171 170 205 220 238 235 214 176 178 176 191 211 227
155 167 208 179 178 157 175 173 176 151 131 134 164 198 23 155 153 163 156 169 171 178 189 184 185 196 199 187 189 195 186 181 192 238 228 222 204 178 171 175 174 196 227
34 181 196 193 180 195 189 182 176 171 167 158 175 185 206 204 185 197 183 186 186 193 189 194 202 207 212 217 221 243 201 177 209 218 187 186 173 157 148 155 173 177 203
38 41 53 59 230 228 202 192 183 191 179 174 187 193 205 216 207 205 207 203 196 200 202 200 206 205 201 204 205 197 174 176 191 176 170 173 161 152 159 164 167 179 189
27 29 30 24 35 353 223 206 206 162 173 190 191 192 213 212 199 216 219 206 193 194 181 187 191 189 201 197 214 203 202 196 172 165 168 170 163 168 157 160 166 171 178
37 35 39 36 38 36 57 203 201 191 186 190 200 206 221 219 215 211 217 216 207 189 177 185 199 209 229 222 229 201 171 164 164 164 161 166 157 152 156 166 176 176 171
33 34 42 34 35 37 37 48 56 111 174 182 180 159 173 218 234 226 218 209 178 171 179 178 195 184 178 174 171 162 162 166 158 159 162 161 160 161 164 166 165 152 149
40 37 34 36 36 38 40 44 46 58 52 96 123 119 112 113 123 130 138 137 130 138 137 149 159 171 171 165 161 156 155 154 151 151 145 149 158 167 165 161 157 142 152
38 41 38 31 31 34 34 35 35 37 63 70 92 123 120 122 131 127 117 130 140 148 151 160 166 167 164 162 158 153 150 149 142 125 119 117 121 125 138 156 155 162 175
31 30 34 30 31 35 32 32 31 34 61 84 87 57 77 130 136 135 129 144 141 141 149 158 157 156 148 155 155 151 152 147 143 144 133 132 132 131 131 123 132 135 170
21 19 18 21 31 24 23 26 23 31 47 61 74 104 113 109 122 146 149 159 163 157 161 159 156 154 150 154 150 148 147 151 155 154 153 155 148 136 130 124 116 112 105
11 8 3 9 35 26 17 9 24 36 47 44 28 54 99 132 144 156 179 183 178 174 168 166 161 154 156 156 154 151 151 150 157 160 163 155 154 160 154 142 134 118 112
341 351 357 2 13 12 5 18 26 25 26 6 313 245 199 198 189 191 196 199 182 179 177 172 167 167 162 160 156 149 153 153 154 155 159 163 158 167 168 162 163 161 169
349 348 352 15 24 9 359 19 23 29 21 4 343 265 215 204 208 208 199 192 196 189 177 175 177 174 169 168 160 158 155 158 156 153 157 159 166 173 171 170 171 186 198
360 0 1 8 12 15 17 20 14 9 340 331 326 319 251 226 218 209 197 196 191 187 181 180 178 179 178 179 178 173 168 168 164 168 172 174 172 174 180 176 180 193 164
352 13 8 4 11 17 19 16 12 346 339 333 326 313 291 233 207 197 196 190 185 189 189 185 190 199 191 187 192 186 183 171 173 182 180 184 181 179 188 190 191 178 147
334 352 358 12 19 16 23 13 353 349 341 336 327 314 295 257 209 197 195 188 189 194 200 194 197 205 202 193 198 193 179 174 176 172 175 178 177 181 191 191 196 177 156
328 328 339 344 355 6 22 17 356 351 350 346 340 334 263 218 193 201 203 204 201 203 199 200 208 205 199 191 191 192 189 170 160 161 160 162 167 172 179 194 206 181 182
299 309 302 311 328 343 357 8 5 1 360 353 355 345 328 209 205 213 222 222 219 207 211 215 210 198 202 205 184 181 184 183 176 163 155 157 166 174 188 196 206 197 193
286 290 286 289 309 321 349 357 6 9 8 3 0 346 342 346 266 216 235 263 273 251 253 239 217 218 218 182 187 189 191 187 177 169 179 185 190 198 201 207 211 218 214